Weather in Tomakomai

Japan     42°40′08″N   141°42′18″E
temp.,
°C
wind,
m/s
gust,
m/s
humid.,
%
clouds,
%
prec.,
mm/h
press.,
hPa
HPBL,
m
26 october, tue
tue2600:00+8ese2281100 0.0 102332
03:00+8ene1181100 0.0 102313
06:00+8ene1182100 0.0 102215
09:00+14sse4878100 0.3 1021772
12:00+15sse5773100 1.8 1018893
15:00+13se61082100 2.8 1017534
18:00+11sse3694100 0.6 1017243
21:00+11ese119428 0.9 101614
27 october, wed
wed2700:00+9ne11955 0.0 101411
03:00+8nnw11955 0.0 101313
06:00+7n11943 0.0 101413
09:00+12ene01801 0.0 1014268
12:00+15ssw346995 0.0 1013729
15:00+13s467780 0.0 1013406
18:00+10se35927 0.0 101391
21:00+10se359173 0.1 101395
28 october, thu
thu2800:00+12s51191100 3.1 1011619
03:00+12s5118217 6.3 1010347
06:00+11sw49873 1.0 1011260
09:00+13wsw357240 1.3 1014471
12:00+15wsw5752100 0.5 10131852
15:00+13wnw2565100 1.0 1013291
18:00+8n3682100 0.4 1016139
21:00+7nnw37880 0.4 1017165
29 october, fri
fri2900:00+6nw258825 0.0 1017124
03:00+8nnw41188100 0.3 10181200
06:00+9nw51282100 0.2 10191049
09:00+11nnw8137529 0.4 10191399
12:00+12nnw9136859 0.1 10191537
15:00+11n611727 0.3 10201314
18:00+8n511762 0.0 1022415
21:00+6nnw411823 0.0 1022358
30 october, sat
sat3000:00+5nnw411843 0.0 1022312
03:00+5nnw411843 0.0 1023254
06:00+4nnw36890 0.0 1024117
09:00+10nnw47710 0.0 1026445
12:00+13nnw45530 0.0 1025995
15:00+13n34602 0.0 1025536
18:00+8nnw22775 0.0 102619
21:00+7nne1180100 0.0 102711